Flag for Canada Weather past 2 weeks in Clarington, Ontario, Canada

Now
77 °F

Sunny.


Feels Like: 79 °F
Forecast: 70 / 84 °F
Wind: 13 mph from Northwest

Location: Peterborough Airport

Current Time: Jul 30, 2015 at 10:57:54 AM

Latest Report: Jul 30, 2015 at 10:00 AM


Visibility: 9 mi

Pressure: 29.81 "Hg

Humidity: 57%

Dew point: 61 °F

Location of ClaringtonLocation

Historic Weather in Clarington — Graph

°F

Clarington temperature yesterday

Maximum temperature yesterday: 88 °F (at 2:00 PM)
Minimum temperature yesterday: 61 °F (at 4:00 AM)
Average temperature yesterday: 74 °F

Past Weeks' High & Low Weather Summary

 TemperatureHumidityPressure
High90 °F (Jul 28, 4:00 PM)100% (Jul 16, 2:00 AM)30.16 "Hg (Jul 16, 2:00 AM)
Low46 °F (Jul 16, 6:00 AM)34% (Jul 23, 2:00 PM)29.59 "Hg (Jul 21, 4:58 AM)
Average69 °F76%29.89 "Hg
* Reported Jul 15 9:00 AM — Jul 30 9:00 AM, Clarington, Weather by CustomWeather, © 2015

Note: Actual official high and low records may vary slightly from our data, if they occured in-between our weather recording intervals... More about our weather records

Advertising

Clarington weather history for previous 24 hours

 ConditionsComfort  
Time TempWeatherWind HumidityBarometerVisibility
9:00 AM
Thu, Jul 30
77 °FSunny.10 mph61%29.81 "Hg9 mi
8:00 AM73 °FSunny.6 mph74%29.81 "Hg9 mi
7:00 AM70 °FSunny.5 mph83%29.80 "Hg9 mi
6:00 AM72 °FOvercast.2 mph83%29.78 "Hg9 mi
5:00 AM73 °FMostly cloudy.6 mph78%29.77 "Hg9 mi
4:00 AM70 °FMostly cloudy.3 mph88%29.77 "Hg9 mi
3:00 AM68 °FPartly cloudy.No wind94%29.77 "Hg9 mi
2:00 AM66 °FClear.2 mph94%29.79 "Hg9 mi
1:00 AM66 °FClear.No wind94%29.80 "Hg9 mi
12:00 AM66 °FPassing clouds.2 mph94%29.82 "Hg9 mi
11:00 PM
Wed, Jul 29
68 °FClear.No wind88%29.83 "Hg9 mi
10:00 PM70 °FClear.No wind88%29.84 "Hg9 mi
9:00 PM73 °FSunny.2 mph74%29.84 "Hg9 mi
8:00 PM79 °FSunny.6 mph65%29.85 "Hg9 mi
7:00 PM82 °FSunny.6 mph55%29.85 "Hg9 mi
6:00 PM86 °FSunny.9 mph46%29.86 "Hg9 mi
5:00 PM88 °FSunny.12 mph40%29.87 "Hg9 mi
4:00 PM88 °FSunny.8 mph43%29.89 "Hg9 mi
3:00 PM88 °FSunny.8 mph40%29.91 "Hg9 mi
2:00 PM88 °FSunny.13 mph43%29.93 "Hg9 mi
1:00 PM86 °FSunny.9 mph49%29.94 "Hg9 mi
12:00 PM84 °FSunny.9 mph55%29.96 "Hg9 mi
11:00 AM82 °FSunny.10 mph55%29.97 "Hg9 mi
10:00 AM79 °FSunny.6 mph70%29.97 "Hg9 mi
Weather by CustomWeather, © 2015

See weather overviewHow to use our weather pages